Regional Weather Roundup
Issued by NWS Glasgow, MT

Home | Current Version | Previous Version | Text Only | Print | Product List | Glossary On
Versions: 1 2 3 4 5 6 7 8 9 10 11 12 13 14 15 16 17 18 19 20 21 22 23 24 25 26 27 28 29 30 31 32 33 34 35 36 37 38 39 40 41 42 43 44 45 46 47 48 49 50
000
ASUS45 KGGW 250715
RWRGGW
HOURLY WEATHER ROUNDUP FOR NORTHEAST MONTANA
NATIONAL WEATHER SERVICE GLASGOW MONTANA
100 AM MDT SAT APR 25 2015

NOTE: "FAIR" INDICATES FEW OR NO CLOUDS BELOW 12,000 FEET WITH NO
SIGNIFICANT WEATHER AND/OR OBSTRUCTIONS TO VISISBILITY.

NORTHEAST MONTANA


CITY           SKY/WX    TMP DP  RH WIND       PRES   REMARKS
GLASGOW        CLOUDY    53  33  46 NW10      29.59F
PLENTYWOOD       N/A    N/A N/A N/A N12         N/A
WOLF POINT     CLOUDY    50  41  71 E7        29.61R
JORDAN           N/A     53  34  48 NW9       29.60S
WINNETT          N/A     46  44  93 W12         N/A
SIDNEY         MOCLDY    54  34  47 CALM      29.65R
GLENDIVE       MOCLDY    52  34  50 E6        29.63S
MALTA            N/A     49  40  71 W7          N/A
SCOBEY           N/A     50  31  48 E12       29.62S
OPHEIM           N/A     48  32  53 NW1       29.46S

FORT PECK REPORTS


CITY           SKY/WX    TMP DP  RH WIND       PRES   REMARKS
FORT PECK        N/A     51  35  54 NW8         N/A
THE PINES        N/A     52  32  46 N3          N/A

SOUTHEAST MONTANA


CITY           SKY/WX    TMP DP  RH WIND       PRES   REMARKS
BILLINGS       LGT RAIN  48  42  80 NW18      29.59S
MILES CITY     MOCLDY    47  43  86 S6        29.58R
BAKER          PTCLDY    42  33  70 E7        29.64R
LIVINGSTON     CLOUDY    38 N/A N/A W13       29.70F

CENTRAL MONTANA


CITY           SKY/WX    TMP DP  RH WIND       PRES   REMARKS
HAVRE          CLOUDY    50  35  56 SW7       29.69R
LEWISTOWN      LGT RAIN  39  37  92 NW3       29.71S
GREAT FALLS    LGT RAIN  41  39  93 E7        29.74S
CUT BANK       CLOUDY    36  20  52 NW8       29.73R
HELENA         CLOUDY    44  26  49 W9        29.73S
BUTTE          CLOUDY    35  29  78 NW8       29.75F
BOZEMAN        MIX PCPN  35  33  92 W7        29.76R

WESTERN MONTANA


CITY           SKY/WX    TMP DP  RH WIND       PRES   REMARKS
MISSOULA       MOCLDY    36  24  62 CALM      29.81R
KALISPELL      NOT AVBL

NORTH DAKOTA


CITY           SKY/WX    TMP DP  RH WIND       PRES   REMARKS
WILLISTON      MOCLDY    50  37  61 E6        29.65S
DICKINSON      CLEAR     43  37  79 E9        29.65R
MINOT          CLEAR     39  36  89 E6        29.74S
BISMARCK       MOCLDY    42  40  92 NE7       29.73R

SOUTHERN SASKATCHEWAN


CITY           SKY/WX    TMP DP  RH WIND       PRES   REMARKS
REGINA         CLOUDY    50  36  57 E12       29.70R
ESTEVAN        MOCLDY    48  39  71 SE14G22   29.70R
SWIFT CURRENT  MOCLDY    39  32  75 E10       29.66F



USA.gov is the U.S. government's official web portal to all federal, state and local government web resources and services.